Terug naar catalogus

STARLINK-6107

ActiefCommunicatieVLEO
NORAD 56117·PAYLOAD·🇺🇸 United States

Gelanceerd Mar 29, 2023 vanaf Cape Canaveral Space Force Station

Loading…

Volgende Passages (komende 24 uur)

TLE

VersSource: CelesTrak SupGP

Epoch: Sep 15, 2026, 02:16 UTC

1 56117C 23046AA  26258.09493056  .00030764  00000+0  11144-2 0  2584
2 56117  42.9994 157.4641 0001278 264.5603 171.2654 15.27560372    16

Volg STARLINK-6107 in realtime met AllMySat

Download on the App Store